Location: Madingley
(52.2167°N, 0.0500°E)
Time: 04:50:48
(UTC+00:00)

Okean O Rocket - Pass Details

Date: 15 May 2026
Orbit: 614 x 633 km, 98.0° (Epoch: 6 June)

Event Time Altitude Azimuth Distance (km) Brightness Sun altitude
Exits shadow 21:29:46 - 196° (SSW) 2,418 4.2 -12.0°
Reaches altitude 10° 21:30:59 10° 202° (SSW) 1,971 3.8 -12.1°
Maximum altitude 21:34:46 30° 265° (W) 1,104 3.1 -12.4°
Drops below altitude 10° 21:38:36 10° 327° (NNW) 1,987 5.7 -12.7°
Sets 21:41:01 0° 338° (NNW) 2,900 6.8 -12.9°
